Tracking 29892 objects as of 21-Nov-2024
HD Live streaming from Space Station
objects crossing your sky now

CZ-3B DEB

Track CZ-3B DEB now!


NORAD ID: 39333
Int'l Code: 2010-042E
Perigee: 656.3 km
Apogee: 41,501.6 km
Inclination: 23.4 °
Period: 754.3 minutes
Semi major axis: 27449 km
RCS: 0.1003 m2 (medium)
Launch date: September 4, 2010
Source: People's Republic of China (PRC)
Launch site: Xichang Space Center, China (XSC)

Note: This is SATELLITE DEBRIS
Your satellite tracking list
Your tracking list is empty




NASA's NSSDC Master Catalog

Two Line Element Set (TLE):
1 39333U 10042E   24323.69726615  .00000120  00000-0  40433-2 0  9993
2 39333  23.4188 184.6048 7439966 209.3968  54.5351  1.90893380 89552
Source of the keplerian elements: AFSPC